Location: Weatherford
(35.5260°N, 98.7070°W)
Time: 02:46:49
(UTC-05:00)

OPAL - Visible Passes

Search period start: 05 September 2015 00:00
Search period end: 15 September 2015 00:00
Orbit: 744 x 796 km, 100.2° (Epoch: 05 September)

Date Brightness Start Highest point End Pass type
(mag) Time Alt. Az. Time Alt. Az. Time Alt. Az.
05 Sep 10.0 23:05:36 10° NNE 23:06:11 13° NNE 23:06:11 13° NNE visible
07 Sep 10.4 00:09:51 10° NNW 00:10:25 12° NNW 00:10:25 12° NNW visible
07 Sep 10.2 23:33:51 10° N 23:34:21 13° N 23:34:21 13° N visible
10 Sep 10.5 00:02:24 10° N 00:02:31 11° N 00:02:31 11° N visible
